Location: *
(51.1248°S, 108.4023°W)
Time: 22:35:15
(UTC+00:00)

Cosmos 1607 - Pass Details

Date: 15 June 2021
Orbit: 911 x 991 km, 65.0° (Epoch: 04 August)

Event Time Altitude Azimuth Distance (km) Brightness Sun altitude
Exits shadow 12:37:11 44° 222° (SW) 1,263 4.2 -23.6°
Maximum altitude 12:37:25 44° 215° (SW) 1,259 4.2 -23.6°
Drops below altitude 10° 12:43:17 10° 143° (SE) 2,640 6.6 -22.7°
Sets 12:45:58 0° 136° (SE) 3,591 7.4 -22.3°
